This is the latest recevied weather packets stored in our database for station/object YO3FVR-WX. If no packets are shown the sender has not sent any weather packets the latest 10 day(s).
| Time | Temp. | Humidity | Pressure | Rain* | Wind** | Luminosity | Snow |
|---|---|---|---|---|---|---|---|
| 1787770235 | 23.89° C | 69% | 1012.3 hPa | 0 mm | - | - | - |
| 1787769635 | 23.89° C | 68% | 1012.2 hPa | 0 mm | - | - | - |
| 1787769005 | 24.44° C | 68% | 1012.3 hPa | 0 mm | - | - | - |
| 1787768405 | 24.44° C | 68% | 1012.3 hPa | 0 mm | - | - | - |
| 1787767775 | 25° C | 66% | 1012.1 hPa | 0 mm | - | - | - |
| 1787767145 | 25.56° C | 65% | 1012.1 hPa | 0 mm | - | - | - |
| 1787766515 | 25.56° C | 62% | 1012 hPa | 0 mm | - | - | - |
| 1787765915 | 26.11° C | 61% | 1011.8 hPa | 0 mm | - | - | - |
| 1787765285 | 26.11° C | 60% | 1011.8 hPa | 0 mm | - | - | - |
| 1787764655 | 26.67° C | 59% | 1011.6 hPa | 0 mm | - | - | - |
| 1787764055 | 26.67° C | 58% | 1011.4 hPa | 0 mm | - | - | - |
| 1787763425 | 26.67° C | 58% | 1011.4 hPa | 0 mm | - | - | - |
| 1787762825 | 27.22° C | 58% | 1011.3 hPa | 0 mm | - | - | - |
| 1787762195 | 27.22° C | 57% | 1011.3 hPa | 0 mm | - | - | - |
| 1787761595 | 27.78° C | 56% | 1011.2 hPa | 0 mm | - | - | - |
| 1787760965 | 27.78° C | 56% | 1011 hPa | 0 mm | - | - | - |
| 1787760365 | 28.33° C | 56% | 1010.9 hPa | 0 mm | - | - | - |
| 1787759735 | 28.33° C | 55% | 1010.8 hPa | 0 mm | - | - | - |
| 1787759135 | 28.33° C | 54% | 1010.7 hPa | 0 mm | - | - | - |
| 1787758505 | 28.89° C | 54% | 1010.6 hPa | 0 mm | - | - | - |
| 1787757875 | 28.89° C | 55% | 1010.5 hPa | 0 mm | - | - | - |
| 1787757245 | 28.33° C | 56% | 1010.7 hPa | 0 mm | - | - | - |
| 1787756615 | 28.33° C | 56% | 1010.7 hPa | 0 mm | - | - | - |
| 1787755985 | 28.33° C | 55% | 1010.6 hPa | 0 mm | - | - | - |
| 1787755355 | 27.78° C | 56% | 1010.6 hPa | 0 mm | - | - | - |
* Rain latest hour (hover to see other rain measurements)
** Current wind speed in m/s (hover to see current wind gust speed)